Theta_e
333 336 339 340 340 341 341 342 341 342 343 342 342 342 341 340 340 340 341 341 341 340 339 336 336 335 334 333 332 332 331 332 334 336 336 335 335 334 334 333 331 329 329 328 328 329 327 325 323 323 322 322
329 329 331 334 337 338 339 340 339 339 340 340 339 338 337 336 337 338 339 339 339 339 337 334 334 333 334 333 332 331 331 331 335 336 335 335 334 334 333 330 329 328 328 326 326 327 325 323 321 321 321 320
331 327 325 326 326 330 334 336 336 336 335 335 335 334 333 333 334 335 335 334 335 336 334 331 332 330 334 333 332 331 331 331 333 336 335 335 333 333 331 329 328 328 326 325 324 323 321 319 318 318 317 315
329 327 325 325 325 325 325 329 332 331 331 330 329 329 330 330 332 332 333 332 333 331 330 329 328 327 332 333 332 332 332 331 331 335 335 334 333 332 329 327 324 325 326 324 322 321 319 318 317 314 313 313
328 329 326 326 326 324 323 322 324 325 325 324 325 327 327 328 332 333 332 333 332 329 328 326 325 325 328 333 332 332 331 331 331 335 335 334 332 329 327 323 321 322 322 321 320 318 316 315 312 311 311 311
328 328 327 329 329 329 329 325 324 326 328 322 329 325 329 330 329 331 331 331 324 327 326 325 323 323 327 332 332 331 330 329 331 335 334 333 330 327 323 318 311 315 319 318 317 315 314 311 309 308 308 308
328 327 329 329 329 329 326 325 323 327 326 331 331 330 330 327 329 330 328 328 326 324 323 324 322 322 325 329 330 330 329 327 331 334 333 330 327 324 320 310 308 309 311 313 315 313 310 308 307 307 307 307
327 327 327 328 328 327 327 327 326 327 328 328 331 330 330 328 329 328 328 321 317 317 322 323 320 320 321 323 325 324 327 328 328 329 330 326 324 319 312 308 307 308 309 310 309 309 307 306 306 306 305 306
323 326 326 327 327 328 328 328 326 326 328 328 329 330 329 328 327 326 325 324 322 322 322 322 321 321 322 324 323 321 323 324 324 324 321 319 315 310 308 307 306 308 308 308 308 307 306 305 304 304 304 305
319 320 321 321 322 325 328 328 328 327 327 328 328 328 329 327 327 325 324 322 321 321 321 321 321 321 322 323 321 322 321 321 320 318 316 313 311 309 308 306 306 307 307 307 306 305 304 303 302 302 302 302
314 313 313 313 313 315 314 319 326 327 327 327 328 327 325 324 323 323 322 321 320 319 319 319 319 320 320 320 319 319 320 318 317 315 313 311 309 307 304 304 304 306 306 306 305 303 302 301 300 299 299 299
309 309 308 308 308 310 309 312 312 314 318 324 325 324 323 323 323 321 320 320 318 318 316 317 317 317 318 318 318 317 318 316 313 312 310 307 306 304 303 303 304 305 305 304 304 302 300 300 299 298 298 297
305 305 304 304 304 304 305 307 308 309 313 316 318 318 318 318 321 320 319 317 316 314 314 314 313 313 314 314 314 314 313 314 311 307 306 306 305 303 302 302 302 303 303 303 302 301 300 299 298 297 296 296
302 302 301 301 301 301 302 302 304 305 307 310 313 315 315 315 315 317 316 313 312 312 309 309 310 310 309 309 309 310 310 309 308 305 305 304 304 304 302 301 300 301 300 300 300 300 299 298 297 296 295 294
300 300 299 299 299 299 298 299 301 301 302 303 304 307 311 311 312 312 312 312 310 309 307 307 306 306 307 307 307 308 307 306 305 304 304 303 302 301 300 299 299 298 297 296 296 297 297 296 296 294 293 291
298 297 297 297 297 297 297 297 297 298 298 299 300 302 305 309 310 309 308 308 308 307 306 305 305 305 305 305 306 305 305 304 304 302 301 301 300 300 299 298 297 296 295 294 293 293 292 291 290 290 288 287
296 296 295 295 295 295 295 295 295 294 295 295 297 299 300 303 306 307 307 306 305 305 306 306 306 305 305 305 304 304 304 303 302 301 300 299 299 298 297 296 295 295 294 292 292 292 292 291 290 291 290 289
294 293 293 294 293 293 293 293 293 293 293 293 294 296 297 298 302 305 305 305 304 304 303 303 303 303 303 304 304 304 303 302 301 300 299 298 297 296 295 294 294 293 291 291 291 290 290 289 289 289 289 288
292 292 291 291 290 290 291 291 291 291 291 291 292 293 294 295 297 300 303 304 304 303 303 302 302 302 303 303 304 303 303 302 300 299 298 297 295 294 293 293 292 291 290 290 289 289 289 288 288 287 287 287
292 291 290 290 290 289 289 289 289 289 289 290 291 291 292 292 294 296 297 301 302 302 302 302 301 301 301 302 302 301 301 301 299 298 298 297 295 292 291 291 290 290 289 289 288 288 288 287 287 286 286 286
292 291 290 289 289 288 287 287 287 287 288 288 288 289 290 290 292 292 294 296 298 300 300 301 300 301 301 302 301 301 300 299 299 298 296 296 295 293 291 290 289 289 288 287 287 287 286 286 286 285 286 285
293 292 291 290 289 288 287 286 286 286 286 286 287 287 288 289 290 291 291 293 295 296 296 297 298 298 299 299 299 299 298 297 298 297 296 294 294 293 290 289 288 287 287 286 286 286 286 286 285 285 285 285
294 294 292 291 289 287 287 286 285 285 285 285 285 286 286 287 288 289 289 291 292 293 294 295 296 297 297 298 298 298 297 296 296 296 295 293 291 292 291 289 287 286 286 284 284 284 284 285 285 285 285 285
290 291 291 289 288 287 286 286 285 284 284 284 284 284 285 285 286 287 288 289 290 291 292 292 293 293 294 295 296 296 295 295 295 294 293 291 290 288 288 288 287 286 284 283 283 282 283 283 284 283 283 283
288 287 288 288 286 284 284 284 285 284 283 283 283 283 283 284 284 285 286 287 288 289 290 290 291 292 292 293 294 294 294 294 294 293 292 290 289 287 285 285 286 285 284 282 281 282 281 281 281 281 280 279
287 286 286 285 284 283 283 283 282 282 282 282 282 282 282 282 283 283 284 285 286 287 288 288 289 289 290 291 291 291 291 292 291 291 290 289 287 288 285 284 285 284 286 283 280 279 279 279 279 279 279 279
285 285 285 285 284 284 283 284 283 283 282 282 282 281 281 281 281 282 283 283 284 284 285 286 286 287 287 289 289 290 289 290 289 289 288 288 286 285 285 285 285 285 286 283 282 282 280 277 276 279 278 278
286 285 285 285 285 285 285 283 284 283 283 282 282 280 280 280 280 281 281 282 283 284 284 284 285 286 286 287 287 289 289 289 289 288 288 287 287 286 283 283 283 285 284 284 283 280 281 279 279 277 276 275
287 286 285 285 285 285 285 285 285 283 282 281 281 280 279 279 279 280 280 281 281 282 282 283 283 284 285 285 286 286 288 288 288 288 288 287 286 285 284 283 283 284 284 284 285 284 280 278 277 278 277 275
287 286 286 286 285 285 285 283 281 279 279 279 278 278 279 279 279 279 279 279 280 281 282 281 282 283 283 284 284 285 285 286 287 287 286 286 286 286 286 284 283 282 284 284 284 283 283 283 282 279 275 278
286 286 286 285 284 283 282 281 280 280 280 279 279 279 278 278 278 278 278 278 278 278 280 280 281 281 282 282 283 283 284 284 284 284 285 286 286 286 286 285 283 283 282 282 282 282 283 283 283 281 278 277
Wind_Speed
11 11 13 13 14 15 16 16 17 17 16 16 16 15 15 14 13 13 13 13 14 13 13 12 14 14 14 13 13 12 11 10 9 11 12 11 10 9 9 6 4 4 5 5 7 11 11 11 11 10 7 5
11 10 11 12 14 16 16 17 16 17 17 16 15 14 14 13 12 12 13 13 14 12 13 12 12 13 14 15 14 13 12 10 11 11 12 12 11 10 8 5 4 2 7 8 5 10 10 10 10 9 8 4
5 9 6 8 11 14 16 16 16 17 16 16 15 15 14 13 13 13 13 12 12 13 14 12 12 13 14 16 15 14 13 11 11 13 12 12 12 11 10 7 4 6 9 8 8 9 10 11 10 10 6 4
6 5 6 10 11 8 12 16 16 15 14 13 12 12 13 13 12 12 11 14 13 16 15 14 11 12 13 15 16 14 12 12 11 14 14 13 14 11 11 11 8 8 10 10 11 10 11 11 10 6 5 4
5 6 9 8 6 7 10 6 13 13 15 14 11 11 13 12 9 8 9 11 9 13 13 14 14 13 12 13 14 14 13 12 12 15 15 14 14 12 11 12 12 11 11 11 11 10 11 10 7 5 5 5
6 5 8 6 4 6 8 3 3 8 9 6 7 12 9 8 7 7 7 9 10 10 12 13 16 15 13 13 13 13 13 13 11 14 15 15 14 10 9 12 9 8 10 12 11 10 9 7 5 5 5 5
7 7 5 4 5 5 7 5 3 3 7 7 9 8 7 7 6 7 8 9 10 9 13 12 14 15 15 14 13 12 12 11 12 13 15 15 13 10 9 7 7 7 7 7 10 8 7 6 5 6 6 5
6 7 6 5 4 4 5 4 2 4 6 6 9 8 8 7 7 8 7 10 15 12 10 11 14 15 13 13 13 11 7 8 10 12 14 13 13 9 5 6 7 8 7 6 6 6 6 6 6 6 5 5
9 8 6 5 5 5 4 5 4 4 5 6 8 8 7 8 7 7 6 7 8 9 9 8 8 8 8 7 7 10 6 6 6 8 7 7 6 5 6 6 7 8 8 7 7 7 6 6 6 6 5 5
9 10 10 10 9 7 6 5 6 4 5 5 6 7 8 8 9 8 7 6 7 8 8 9 8 8 8 8 9 11 9 7 7 6 6 7 5 4 3 5 6 7 9 8 8 7 7 6 6 6 6 6
7 7 8 6 7 7 7 8 6 5 4 5 7 8 7 6 4 5 7 7 6 7 6 7 7 7 7 9 7 6 9 9 7 7 7 6 6 4 4 5 6 7 6 7 9 8 8 7 7 6 6 6
5 5 6 7 9 7 7 7 8 8 7 6 3 4 4 8 8 7 6 7 7 5 3 4 1 2 4 6 7 5 6 8 7 7 6 6 5 5 5 6 5 6 7 7 7 9 8 8 8 7 6 6
4 5 5 6 7 8 9 6 7 7 6 6 4 4 4 4 4 6 5 6 3 2 1 3 3 2 3 3 2 2 3 5 7 7 6 6 6 6 6 6 6 6 7 6 6 8 8 8 8 7 7 6
6 5 5 6 6 7 7 8 8 8 7 7 7 6 4 3 4 2 8 7 6 6 5 4 5 5 5 5 6 5 2 3 3 6 7 6 6 6 6 7 6 7 7 7 6 6 8 8 7 7 7 7
8 7 5 5 4 5 7 7 7 8 7 8 7 7 6 5 5 4 2 5 7 6 7 6 5 6 5 6 6 6 6 6 5 5 7 7 7 7 7 7 7 7 8 8 8 7 7 7 7 7 7 7
8 8 8 6 5 5 5 5 6 6 7 9 8 7 8 6 4 5 5 4 3 6 7 7 8 6 6 6 6 6 5 7 7 8 8 11 10 9 9 8 8 8 9 9 8 8 9 8 8 7 6 6
7 7 8 8 7 6 6 6 5 6 7 8 8 8 9 8 7 5 4 4 4 1 2 8 9 9 9 9 10 9 8 8 7 8 8 10 9 10 10 10 8 9 9 10 9 9 9 8 9 7 7 7
7 7 7 6 6 6 6 6 6 6 6 5 7 7 9 8 8 6 5 4 5 4 3 3 4 7 6 5 7 8 9 8 7 7 8 9 9 7 9 9 8 8 9 8 8 8 8 8 7 7 8 7
6 6 7 7 7 7 7 6 6 7 6 7 7 7 7 8 7 8 6 4 5 5 3 3 3 4 5 6 6 6 6 10 10 10 8 7 9 8 8 8 7 8 8 9 9 8 7 7 7 7 8 7
6 5 5 5 7 6 8 6 7 7 7 7 6 6 6 7 7 7 7 6 2 4 5 5 4 3 5 6 6 6 7 7 7 7 9 9 12 11 9 10 8 7 9 8 9 7 7 7 6 7 7 7
6 5 6 6 6 7 7 7 7 6 6 6 6 6 6 7 7 7 7 7 6 3 2 3 5 5 6 5 7 8 8 7 8 11 10 7 6 12 10 11 10 8 8 9 8 7 8 7 7 7 6 6
4 4 4 5 4 6 7 8 7 6 6 7 6 6 6 7 6 7 8 7 7 5 5 3 3 3 4 5 5 6 6 6 5 4 8 9 5 7 12 10 11 10 9 8 8 8 8 7 7 6 6 6
5 3 3 3 4 5 6 6 7 6 7 6 6 7 7 7 6 6 7 7 7 6 5 4 3 3 3 4 5 6 6 6 6 7 6 10 8 4 6 11 10 11 10 10 9 9 8 7 7 6 6 6
5 4 4 5 5 5 6 6 6 6 6 6 6 7 7 7 7 7 6 7 7 6 5 4 4 3 1 3 5 6 7 6 6 8 9 9 12 10 7 7 10 11 13 11 10 9 8 7 7 8 6 7
6 5 5 3 5 3 5 5 6 6 7 6 6 8 8 8 7 8 7 7 7 6 5 4 3 3 2 1 3 5 6 6 7 7 7 8 7 12 11 7 7 9 12 14 9 7 8 8 8 7 7 7
4 5 4 3 3 3 4 5 6 6 7 7 6 7 8 8 8 8 8 7 7 6 5 5 5 4 1 2 3 3 3 4 5 7 8 10 8 3 11 9 8 10 11 3 8 9 5 6 5 6 7 6
5 4 4 4 3 3 2 3 4 4 5 6 6 7 8 7 8 8 7 8 7 7 7 5 4 4 5 3 1 5 5 6 6 6 8 8 11 8 1 4 7 11 2 5 6 7 8 3 3 1 3 4
4 4 4 4 3 3 2 2 2 2 3 5 7 8 8 8 9 10 8 9 8 6 6 7 5 4 4 3 3 0 5 7 8 7 7 6 6 9 10 6 8 5 2 4 14 7 2 5 4 1 5 3
4 3 2 2 2 1 1 1 2 4 5 6 6 5 8 8 9 9 8 8 9 8 8 7 6 5 4 4 4 3 1 5 7 7 7 6 7 9 10 10 6 5 1 5 3 5 8 3 2 6 4 7
5 4 4 5 5 5 4 3 4 6 6 7 6 6 5 7 8 8 7 8 8 9 8 8 8 7 6 5 4 3 2 1 1 3 4 5 6 6 4 8 10 8 3 5 2 4 2 1 5 8 7 9
6 5 5 5 4 4 4 3 3 3 3 3 4 4 5 5 7 8 8 7 7 8 8 7 7 7 6 5 4 4 4 4 3 2 1 0 3 3 2 4 9 11 8 2 3 2 4 4 2 10 12 7
Wind_Direction
265 253 229 224 225 221 220 219 217 213 206 203 199 198 196 195 195 193 191 189 190 194 188 169 163 160 160 167 171 184 202 187 192 185 171 167 162 162 158 127 105 107 98 98 134 142 135 129 125 119 115 117
291 296 304 274 237 226 223 218 218 217 210 202 201 197 195 193 194 195 197 199 196 189 182 170 164 163 165 168 173 183 191 193 188 187 177 169 161 155 144 90 89 77 72 66 96 138 131 120 110 109 110 114
336 329 325 302 304 288 249 230 221 216 214 204 200 196 194 189 187 191 190 197 201 185 174 174 170 169 174 170 177 180 185 196 189 188 183 171 160 149 135 111 61 51 69 73 73 98 98 97 97 93 90 86
310 295 297 297 307 296 291 266 235 230 226 216 199 198 196 192 184 184 184 189 192 183 174 175 172 181 184 176 177 179 185 188 190 187 185 174 158 150 133 102 70 62 77 82 82 81 92 91 85 78 78 78
303 299 294 300 289 285 275 262 283 248 226 223 222 205 200 195 187 185 186 189 190 182 175 177 175 181 191 185 177 178 184 183 194 186 184 167 154 147 123 107 87 76 81 82 84 81 85 79 75 68 66 65
330 315 312 306 305 293 289 296 211 262 237 201 215 225 207 198 194 188 184 179 187 182 181 181 178 181 185 186 184 183 183 182 191 181 178 160 156 138 130 114 103 95 84 81 81 78 70 69 74 64 61 56
331 323 307 301 303 291 296 287 212 269 274 226 210 214 204 199 195 192 185 178 180 180 177 177 185 187 184 183 184 187 185 184 182 174 170 161 149 138 125 113 115 112 107 91 78 71 67 74 68 69 62 59
329 325 318 312 306 294 293 282 254 198 230 256 225 206 202 199 193 189 188 181 176 173 178 183 185 188 190 186 181 174 179 178 171 169 159 149 146 135 128 124 119 115 111 101 94 80 71 69 63 62 55 54
339 328 326 331 324 306 281 280 277 250 236 227 254 214 203 199 192 185 184 181 178 181 178 177 181 184 183 188 173 161 160 160 150 141 149 148 143 144 137 129 125 120 111 107 98 89 77 71 63 58 48 40
344 351 356 352 353 344 336 304 276 256 247 252 239 250 213 190 187 184 177 178 186 185 184 178 186 184 184 190 181 167 160 163 153 149 149 147 145 137 119 117 122 122 124 121 110 102 89 76 65 58 47 39
6 2 359 353 349 5 354 342 332 323 289 223 238 228 230 185 183 183 171 175 182 191 190 189 185 187 189 190 184 180 156 154 155 153 151 145 136 120 106 96 105 109 106 113 116 109 103 92 80 67 55 43
21 9 4 357 350 6 355 358 8 350 341 330 306 288 254 191 176 168 180 173 177 181 194 214 256 234 206 181 166 167 160 151 152 146 141 131 110 102 90 93 86 94 94 93 101 103 98 98 93 81 66 57
9 19 20 8 1 1 349 3 3 345 346 9 3 26 348 299 171 173 168 148 127 85 49 14 7 350 356 358 28 122 142 143 140 116 91 85 87 83 88 86 85 87 80 78 83 99 100 96 92 89 81 63
353 8 32 23 15 356 354 6 354 357 7 5 11 14 1 15 7 300 143 117 101 92 60 43 34 40 24 22 11 355 45 72 98 115 108 91 90 82 70 70 67 81 76 66 59 64 88 88 90 90 87 72
350 350 15 35 27 19 15 358 356 7 3 7 8 359 3 13 35 45 360 127 129 116 114 99 67 43 43 40 26 23 16 25 51 62 81 91 80 72 76 67 57 65 71 63 56 50 61 68 74 79 78 76
354 354 352 6 21 31 19 14 17 11 8 3 358 353 4 9 45 68 48 36 58 121 123 117 115 101 74 57 46 50 46 59 37 56 61 68 72 68 65 62 55 53 64 56 45 40 40 40 51 44 44 62
355 350 358 6 11 12 13 20 21 24 14 6 358 359 359 7 8 23 73 64 52 7 125 146 144 141 145 149 142 127 103 84 76 70 74 74 82 82 80 72 63 67 69 64 52 45 41 43 48 46 46 47
12 358 352 348 358 1 7 17 27 25 17 10 10 10 7 2 1 16 29 48 62 68 34 34 87 115 106 105 109 110 115 109 108 103 103 109 97 91 93 96 98 90 77 76 73 62 50 45 42 43 48 44
24 13 3 357 0 5 10 17 26 18 13 13 12 15 20 8 2 358 9 64 89 45 39 58 77 84 107 119 118 117 127 131 134 129 122 118 103 99 89 87 78 85 90 89 80 76 73 61 49 45 48 43
15 19 21 10 9 6 9 16 25 24 16 14 7 14 18 7 5 1 358 359 10 119 134 120 101 89 96 98 92 102 107 110 118 121 128 136 130 116 113 109 99 91 95 87 86 83 79 78 71 70 56 51
21 20 19 23 21 18 13 18 18 15 11 13 14 9 13 5 3 9 3 0 2 23 63 106 123 135 130 132 134 142 143 142 149 146 138 138 137 131 131 121 115 102 97 94 85 81 79 75 78 70 72 66
15 21 28 32 26 28 28 19 13 12 15 21 13 9 13 4 7 9 8 7 6 14 16 48 84 88 109 116 115 119 126 126 120 118 132 127 120 131 130 130 128 120 106 97 92 83 78 73 72 71 72 77
357 358 20 28 28 31 30 25 20 16 19 16 10 14 2 6 8 5 9 11 9 17 17 20 33 87 112 121 126 128 132 136 139 137 140 133 123 106 119 131 126 122 114 100 90 81 70 69 59 58 57 63
5 3 6 13 6 21 17 16 18 21 26 14 17 8 3 3 7 2 359 2 7 20 19 29 25 22 50 128 138 141 143 148 150 148 139 136 131 121 106 108 126 127 115 95 82 77 68 60 64 63 57 58
8 1 353 17 27 15 1 360 5 21 21 22 15 9 8 8 5 4 2 3 6 14 9 13 16 59 43 54 135 148 156 149 143 140 138 126 125 133 126 127 137 134 123 116 85 72 71 60 49 59 65 66
14 19 14 348 6 7 358 7 14 14 14 13 9 15 15 8 4 5 8 4 3 2 13 12 6 5 32 94 115 107 106 113 120 133 137 135 118 150 143 146 165 165 128 111 147 142 120 66 58 51 43 53
17 8 11 14 7 15 34 45 44 45 21 10 10 14 13 13 10 5 5 5 6 10 3 10 17 10 352 2 85 130 129 136 140 150 153 157 147 144 109 129 173 189 303 127 112 109 96 158 109 124 46 49
14 18 20 30 27 29 52 68 72 79 36 21 22 17 10 14 11 9 6 5 3 3 6 1 5 1 22 19 357 305 157 156 159 159 164 166 168 149 144 174 191 221 336 178 138 148 169 145 132 129 210 131
347 326 320 291 258 182 92 168 26 20 25 24 16 16 16 12 9 8 9 5 5 4 4 1 357 1 8 25 18 17 215 181 176 170 171 168 169 185 164 165 182 209 307 222 325 127 126 113 201 220 116 122
349 344 348 353 5 10 3 10 7 18 4 3 13 14 5 13 16 11 9 9 4 6 5 1 354 351 360 11 21 27 29 15 75 164 176 181 180 187 222 169 165 189 217 225 343 346 354 290 189 154 161 149
356 6 13 19 30 29 23 12 39 25 25 20 19 16 17 15 17 18 15 11 11 5 2 5 360 356 356 3 5 7 40 46 26 9 7 288 203 227 215 188 183 187 181 124 283 11 22 26 2 137 140 195